Terminal Aerodrome Forecast
Issued by NWS

Home | Current Version | Previous Version | Text Only | Print | Product List | Glossary On
Versions: 1 2 3 4 5 6 7 8 9 10 11 12 13 14 15 16
000
FTUS45 KRIW 212055 AAA
TAFPNA
TAF AMD
KPNA 212055Z 2121/2218 22010G20KT P6SM VCSH BKN070
     FM220100 16009KT P6SM VCSH SCT020 BKN030
     FM220300 14007KT 6SM -RA SCT015 BKN025
      AMD LTD TO CLD VIS AND WIND=

USA.gov is the U.S. government's official web portal to all federal, state and local government web resources and services.